This is the latest recevied weather packets stored in our database for station/object N4HAC. If no packets are shown the sender has not sent any weather packets the latest 1 day(s).
| Time | Temp. | Humidity | Pressure | Rain* | Wind** | Luminosity | Snow |
|---|---|---|---|---|---|---|---|
| 1777984048 | 17.78° C | 71% | 1007.6 hPa | 0 mm | 1.34 m/s, 130° | 273 W/m² | - |
| 1777983746 | 17.78° C | 68% | 1007.3 hPa | 0 mm | 0 m/s | 269 W/m² | - |
| 1777983442 | 17.78° C | 69% | 1007.6 hPa | 0 mm | 0.45 m/s, 131° | 282 W/m² | - |
| 1777983139 | 17.22° C | 69% | 1007.5 hPa | 0 mm | 0.89 m/s, 106° | 257 W/m² | - |
| 1777982835 | 16.67° C | 69% | 1007.5 hPa | 0 mm | 0.45 m/s, 175° | 245 W/m² | - |
| 1777982531 | 16.11° C | 72% | 1007.4 hPa | 0 mm | 0.89 m/s, 158° | 230 W/m² | - |
| 1777982224 | 16.11° C | 77% | 1007.4 hPa | 0 mm | 0.45 m/s, 87° | 168 W/m² | - |
| 1777981923 | 16.11° C | 77% | 1007.6 hPa | 0 mm | 0.45 m/s, 68° | 189 W/m² | - |
| 1777981620 | 15° C | 77% | 1007.4 hPa | 0 mm | 0.89 m/s, 39° | 144 W/m² | - |
| 1777981315 | 14.44° C | 80% | 1007.3 hPa | 0 mm | 0.89 m/s, 53° | 158 W/m² | - |
| 1777981012 | 14.44° C | 80% | 1007.1 hPa | 0 mm | 0.89 m/s, 48° | 119 W/m² | - |
| 1777980709 | 13.33° C | 83% | 1007.2 hPa | 0 mm | 0.89 m/s, 70° | 140 W/m² | - |
| 1777980405 | 13.33° C | 85% | 1006.9 hPa | 0 mm | 1.34 m/s, 47° | 82 W/m² | - |
| 1777980103 | 12.78° C | 86% | 1007 hPa | 0 mm | 1.34 m/s, 38° | 113 W/m² | - |
| 1777979802 | 12.78° C | 85% | 1007.1 hPa | 0 mm | 1.79 m/s, 26° | 79 W/m² | - |
| 1777979499 | 12.78° C | 84% | 1007.2 hPa | 0 mm | 1.79 m/s, 50° | 45 W/m² | - |
| 1777979195 | 12.78° C | 83% | 1006.8 hPa | 0 mm | 1.34 m/s, 41° | 44 W/m² | - |
| 1777978892 | 12.78° C | 84% | 1006.8 hPa | 0 mm | 0.89 m/s, 36° | 58 W/m² | - |
| 1777978589 | 12.22° C | 85% | 1006.6 hPa | 0 mm | 1.34 m/s, 30° | 48 W/m² | - |
| 1777978285 | 12.22° C | 86% | 1006.7 hPa | 0 mm | 0 m/s | 35 W/m² | - |
| 1777977982 | 12.22° C | 86% | 1006.5 hPa | 0 mm | 0.89 m/s, 30° | 28 W/m² | - |
| 1777977680 | 12.22° C | 85% | 1006.5 hPa | 0 mm | 1.34 m/s, 35° | 21 W/m² | - |
| 1777977376 | 12.22° C | 85% | 1006.4 hPa | 0 mm | 0.89 m/s, 6° | 16 W/m² | - |
| 1777977073 | 12.22° C | 85% | 1006.3 hPa | 0 mm | 1.34 m/s, 43° | 13 W/m² | - |
| 1777976771 | 12.22° C | 85% | 1006.3 hPa | 0 mm | 1.34 m/s, 54° | 9 W/m² | - |
* Rain latest hour (hover to see other rain measurements)
** Current wind speed in m/s (hover to see current wind gust speed)